Location: ???????
(37.9763°N, 23.8889°E)
Time: 08:06:35
(UTC+00:00)

Cosmos 1892 Rocket - Pass Details

Date: 15 June 2024
Orbit: 602 x 629 km, 82.5° (Epoch: 23 July)

Event Time Altitude Azimuth Distance (km) Brightness Sun altitude
Exits shadow 01:36:50 22° 210° (SSW) 1,369 4.7 -14.0°
Maximum altitude 01:39:30 53° 280° (W) 768 3.8 -13.6°
Drops below altitude 10° 01:43:50 10° 357° (N) 2,000 6.8 -13.0°
Sets 01:46:08 0° 2° (N) 2,915 7.8 -12.6°
